Regional Weather Roundup
Issued by NWS Green Bay, WI

Home | Current Version | Previous Version | Graphics & Text | Print | Product List | Glossary Off
Versions: 1 2 3 4 5 6 7 8 9 10 11 12 13 14 15 16 17 18 19 20 21 22 23 24 25 26 27 28 29 30 31 32 33 34 35 36 37 38 39 40 41 42 43 44 45 46 47 48 49 50

000
ASUS43 KGRB 031011
RWRGRB

NORTH-CENTRAL AND NORTHEAST WISCONSIN REGIONAL WEATHER ROUNDUP
NATIONAL WEATHER SERVICE GREEN BAY WI
500 AM CDT THU SEP 03 2015

WIZ005-009-010>012-018-019-031100-
NORTH CENTRAL WISCONSIN

CITY           SKY/WX    TMP DP  RH WIND       PRES   REMARKS
IRONWOOD       CLOUDY    55  55 100 CALM      29.94F VSB<1/4
MANITOWISH WTR FOG       62  62 100 CALM      29.98S VSB 3/4
ARBOR VITAE    MOCLDY    64  63  94 CALM      29.98S
EAGLE RIVER    CLOUDY    63  63 100 NE5       29.97R FOG
LAND O LAKES   FOG       61  61 100 CALM      29.99S VSB 1/2
RHINELANDER    CLOUDY    64  62  93 N5        29.97S
PHILLIPS       CLOUDY    63  63 100 NE6       29.96S FOG
ANTIGO         CLOUDY    64  64  99 N9        29.95R
TOMAHAWK       CLOUDY    64  62  95 CALM      29.97R
MERRILL        CLOUDY    64  64 100 CALM      29.96R
$$

WIZ013-073-031100-
NORTHEAST WISCONSIN

CITY           SKY/WX    TMP DP  RH WIND       PRES   REMARKS
IRON MOUNTAIN  CLOUDY    65  64  97 N5        29.93S
MARINETTE      CLOUDY    66  63  88 E6        29.88S
OCONTO         CLOUDY    66  66 100 NW5       29.87F
$$

WIZ017-030-035>037-045-031100-
CENTRAL WISCONSIN

CITY           SKY/WX    TMP DP  RH WIND       PRES   REMARKS
MEDFORD        FOG       64  64 100 N3        29.95R VSB 1/4
WAUSAU         CLOUDY    67  65  93 NE7       29.93R
MOSINEE        CLOUDY    64  64 100 N6        29.95R FOG
MARSHFIELD     PTCLDY    66  63  90 N3        29.93S FOG
WISC RAPIDS    FOG       69  66  90 CALM      29.93S VSB 1/4
STEVENS POINT  PTCLDY    65  65  99 N5        29.93S FOG
WAUPACA        CLOUDY    70  69  98 CALM      29.91R FOG
SHAWANO        NOT AVBL
CLINTONVILLE   CLOUDY    68  64  88 NW3       29.91S
WAUTOMA        PTCLDY    69  69 100 CALM      29.92R FOG
$$

WIZ038-039-048-051-031100-
FOX VALLEY

CITY           SKY/WX    TMP DP  RH WIND       PRES   REMARKS
NWS GREEN BAY  CLOUDY    70  68  93 NW7       29.89S
APPLETON       CLOUDY    68  68 100 W5        29.89R
OSHKOSH        CLOUDY    71  69  93 S3        29.90S FOG
FOND DU LAC    CLOUDY    71  70  96 CALM      29.91F FOG
$$

WIZ022-050-052-031100-
EAST CENTRAL WISCONSIN

CITY           SKY/WX    TMP DP  RH WIND       PRES   REMARKS
EPHRAIM        CLOUDY    65  65  99 E12G17    29.88S
STURGEON BAY   CLOUDY    66  63  88 CALM      29.90S
MANITOWOC      LGT RAIN  71  68  90 MISG      29.86F
SHEBOYGAN      CLOUDY    68  66  93 SW8       29.90F
$$

LMZ563-521-522-541>543-031100-
LAKESHORE

STATION/POSITION TIME  TEMP    WIND        PRES    VSBY  WAVE
                       AIR SEA DIR/SP/G                  HT/PER
                 (UTC) (F)     (DEG/KT/KT) (MB)    (MI)  (FT/S)
SHEBOYGAN LKSHOR 1000   71     240/  7/  8 1012.0F
KEWAUNEE LKSHORE 0900   55     130/  1/  5 1011.0S
ALGOMA MARINA    0914             CALM       N/A
NORTHPORT PIER   0900   66      90/ 13/ 16 1012.2F
N MID LAKE BUOY  0950   67 66  110/ 21/ 25 1011.6F         3/ 4
S GREEN BAY BUOY 1000   66 66  300/  6/  6 1013.0F
SISTER BAY LKSHO 0911   66     100/ 12/ 17   N/A
CHAMBERS ISLAND  0900   67      80/ 11/ 16 1011.9F
MENOMINEE LKSHOR 0900   65      40/  5/  7 1011.1R
$$


USA.gov is the U.S. government's official web portal to all federal, state and local government web resources and services.